• In Hungary
  • List of Countries
  • For 7 days
  • Water Temperature
  • Satellite Maps
  • Weather Map
  • News
  • Weather Widgets
  • user-avatar
    Login

    Hourly Weather Zateklyase

    Today, 23 October, Tuesday

    Time Temperature Precipitation Wind Pressure Humidity
    00:00 +6°C° 0.2 mm 4 mps 744 mmHg 90%
    01:00 +5°C° 0.2 mm 4 mps 744 mmHg 91%
    02:00 +5°C° 0.2 mm 3 mps 743 mmHg 92%
    03:00 +4°C° 0 mm 3 mps 743 mmHg 93%
    04:00 +3°C° 0 mm 3 mps 743 mmHg 94%
    05:00 +2°C° 0 mm 3 mps 742 mmHg 95%
    06:00 +2°C° 0 mm 3 mps 742 mmHg 94%
    07:00 +2°C° 0 mm 3 mps 741 mmHg 93%
    08:00 +2°C° 0 mm 3 mps 741 mmHg 92%
    09:00 +3°C° 0 mm 3 mps 740 mmHg 86%
    10:00 +4°C° 0 mm 4 mps 739 mmHg 79%
    11:00 +6°C° 0 mm 4 mps 739 mmHg 73%
    12:00 +6°C° 0.1 mm 5 mps 737 mmHg 72%
    13:00 +6°C° 0.1 mm 5 mps 736 mmHg 71%
    14:00 +5°C° 0.1 mm 6 mps 735 mmHg 70%
    15:00 +5°C° 0.1 mm 6 mps 734 mmHg 72%
    16:00 +4°C° 0.1 mm 6 mps 732 mmHg 74%
    17:00 +4°C° 0.1 mm 6 mps 731 mmHg 76%
    18:00 +3°C° 0.3 mm 6 mps 729 mmHg 78%
    19:00 +3°C° 0.3 mm 7 mps 728 mmHg 79%
    20:00 +3°C° 0.3 mm 7 mps 727 mmHg 81%
    21:00 +3°C° 0.7 mm 6 mps 725 mmHg 83%
    22:00 +4°C° 0.7 mm 6 mps 724 mmHg 85%
    23:00 +5°C° 0.7 mm 5 mps 723 mmHg 86%

    Tomorrow, 24 October, Wednesday

    Time Temperature Precipitation Wind Pressure Humidity
    00:00 +5°C° 0.1 mm 5 mps 722 mmHg 87%
    01:00 +5°C° 0.1 mm 5 mps 722 mmHg 88%
    02:00 +5°C° 0.1 mm 4 mps 721 mmHg 89%
    03:00 +5°C° 0.1 mm 4 mps 721 mmHg 89%
    04:00 +5°C° 0.1 mm 4 mps 720 mmHg 89%
    05:00 +5°C° 0.1 mm 3 mps 720 mmHg 89%
    06:00 +4°C° 0.2 mm 3 mps 720 mmHg 90%
    07:00 +4°C° 0.2 mm 3 mps 720 mmHg 90%
    08:00 +4°C° 0.2 mm 3 mps 720 mmHg 90%
    09:00 +4°C° 0.4 mm 3 mps 720 mmHg 87%
    10:00 +5°C° 0.4 mm 3 mps 720 mmHg 84%
    11:00 +5°C° 0.4 mm 4 mps 721 mmHg 81%
    12:00 +5°C° 0.1 mm 4 mps 721 mmHg 79%
    13:00 +5°C° 0.1 mm 4 mps 721 mmHg 76%
    14:00 +6°C° 0.1 mm 4 mps 721 mmHg 74%
    15:00 +5°C° 0 mm 3 mps 722 mmHg 76%
    16:00 +5°C° 0 mm 3 mps 722 mmHg 78%
    17:00 +4°C° 0 mm 3 mps 723 mmHg 80%
    18:00 +4°C° 0 mm 3 mps 724 mmHg 82%
    19:00 +4°C° 0 mm 3 mps 724 mmHg 84%
    20:00 +4°C° 0 mm 3 mps 725 mmHg 86%
    21:00 +4°C° 0.1 mm 4 mps 725 mmHg 86%
    22:00 +3°C° 0.1 mm 5 mps 726 mmHg 87%
    23:00 +3°C° 0.1 mm 5 mps 726 mmHg 87%

    Day after tomorrow, 25 October, Thursday

    Time Temperature Precipitation Wind Pressure Humidity
    00:00 +3°C° 0.1 mm 5 mps 727 mmHg 86%
    01:00 +3°C° 0.1 mm 6 mps 727 mmHg 84%
    02:00 +3°C° 0.1 mm 6 mps 728 mmHg 83%
    03:00 +2°C° 0.1 mm 6 mps 728 mmHg 83%
    04:00 +2°C° 0.1 mm 6 mps 729 mmHg 82%
    05:00 +1°C° 0.1 mm 6 mps 729 mmHg 82%
    06:00 +1°C° 0 mm 6 mps 729 mmHg 82%
    07:00 +1°C° 0 mm 6 mps 729 mmHg 82%
    08:00 +1°C° 0 mm 6 mps 730 mmHg 82%
    09:00 +1°C° 0 mm 6 mps 730 mmHg 81%
    10:00 +1°C° 0 mm 5 mps 730 mmHg 79%
    11:00 +2°C° 0 mm 5 mps 730 mmHg 78%
    12:00 +2°C° 0 mm 5 mps 730 mmHg 76%
    13:00 +3°C° 0 mm 4 mps 730 mmHg 74%
    14:00 +4°C° 0 mm 4 mps 730 mmHg 72%
    15:00 +3°C° 0 mm 3 mps 730 mmHg 73%
    16:00 +3°C° 0 mm 3 mps 730 mmHg 74%
    17:00 +4°C° 0 mm 2 mps 730 mmHg 75%
    18:00 +3°C° 0 mm 2 mps 730 mmHg 79%
    19:00 +3°C° 0 mm 2 mps 730 mmHg 83%
    20:00 +2°C° 0 mm 2 mps 731 mmHg 86%
    21:00 +2°C° 0 mm 2 mps 731 mmHg 88%
    22:00 +1°C° 0 mm 2 mps 731 mmHg 90%
    23:00 0°C° 0 mm 3 mps 732 mmHg 93%

    26 October, Friday

    Time Temperature Precipitation Wind Pressure Humidity
    00:00 0°C° 0 mm 3 mps 732 mmHg 93%
    01:00 0°C° 0 mm 3 mps 733 mmHg 93%
    02:00 0°C° 0 mm 3 mps 733 mmHg 93%
    03:00 0°C° 0 mm 3 mps 733 mmHg 94%
    04:00 0°C° 0 mm 3 mps 734 mmHg 94%
    05:00 -1°C° 0 mm 3 mps 734 mmHg 95%
    06:00 0°C° 0 mm 3 mps 734 mmHg 94%
    07:00 0°C° 0 mm 3 mps 734 mmHg 93%
    08:00 -1°C° 0 mm 4 mps 735 mmHg 92%
    09:00 0°C° 0 mm 4 mps 735 mmHg 87%
    10:00 +3°C° 0 mm 4 mps 735 mmHg 81%
    11:00 +4°C° 0 mm 4 mps 736 mmHg 75%
    12:00 +4°C° 0 mm 4 mps 736 mmHg 73%
    13:00 +5°C° 0 mm 4 mps 736 mmHg 71%
    14:00 +5°C° 0 mm 4 mps 736 mmHg 70%
    15:00 +4°C° 0 mm 3 mps 737 mmHg 74%
    16:00 +4°C° 0 mm 3 mps 737 mmHg 78%
    17:00 +4°C° 0 mm 2 mps 737 mmHg 83%
    18:00 +4°C° 0 mm 2 mps 737 mmHg 85%
    19:00 +3°C° 0 mm 2 mps 738 mmHg 88%
    20:00 +2°C° 0 mm 2 mps 738 mmHg 91%
    21:00 +2°C° 0 mm 2 mps 738 mmHg 92%
    22:00 +2°C° 0 mm 2 mps 738 mmHg 93%
    23:00 +1°C° 0 mm 2 mps 739 mmHg 94%

    27 October, Saturday

    Time Temperature Precipitation Wind Pressure Humidity
    00:00 +1°C° 0 mm 2 mps 739 mmHg 94%
    01:00 +1°C° 0 mm 2 mps 739 mmHg 94%
    02:00 +1°C° 0 mm 2 mps 739 mmHg 94%
    03:00 +1°C° 0 mm 3 mps 738 mmHg 94%
    04:00 +1°C° 0 mm 3 mps 738 mmHg 95%
    05:00 0°C° 0 mm 4 mps 738 mmHg 95%
    06:00 +1°C° 0.1 mm 4 mps 738 mmHg 92%
    07:00 +2°C° 0.1 mm 5 mps 737 mmHg 89%
    08:00 +2°C° 0.1 mm 6 mps 737 mmHg 85%
    09:00 +3°C° 0.4 mm 6 mps 737 mmHg 85%
    10:00 +4°C° 0.4 mm 6 mps 736 mmHg 85%
    11:00 +4°C° 0.4 mm 7 mps 736 mmHg 85%
    12:00 +5°C° 0.2 mm 6 mps 736 mmHg 85%
    13:00 +5°C° 0.2 mm 6 mps 736 mmHg 84%
    14:00 +7°C° 0.2 mm 6 mps 735 mmHg 84%
    15:00 +7°C° 0 mm 5 mps 735 mmHg 85%
    16:00 +7°C° 0 mm 4 mps 735 mmHg 87%
    17:00 +7°C° 0 mm 4 mps 735 mmHg 88%
    18:00 +7°C° 0.1 mm 4 mps 735 mmHg 89%
    19:00 +8°C° 0.1 mm 3 mps 735 mmHg 90%
    20:00 +8°C° 0.1 mm 3 mps 736 mmHg 92%
    21:00 +7°C° 0.2 mm 3 mps 736 mmHg 93%
    22:00 +7°C° 0.2 mm 2 mps 736 mmHg 95%
    23:00 +7°C° 0.2 mm 2 mps 736 mmHg 96%

    28 October, Sunday

    Time Temperature Precipitation Wind Pressure Humidity
    00:00 +7°C° 0.1 mm 2 mps 736 mmHg 96%
    01:00 +6°C° 0.1 mm 2 mps 736 mmHg 96%
    02:00 +7°C° 0.1 mm 1 mps 736 mmHg 96%
    03:00 +7°C° 0.1 mm 1 mps 736 mmHg 95%
    04:00 +7°C° 0.1 mm 1 mps 736 mmHg 95%
    05:00 +7°C° 0.1 mm 1 mps 736 mmHg 94%
    06:00 +7°C° 0.3 mm 1 mps 736 mmHg 93%
    07:00 +7°C° 0.3 mm 1 mps 735 mmHg 93%
    08:00 +7°C° 0.3 mm 1 mps 735 mmHg 92%
    09:00 +7°C° 0.7 mm 1 mps 735 mmHg 92%
    10:00 +7°C° 0.7 mm 1 mps 735 mmHg 92%
    11:00 +7°C° 0.7 mm 1 mps 735 mmHg 93%
    12:00 +7°C° 1.4 mm 1 mps 734 mmHg 93%
    13:00 +6°C° 1.4 mm 2 mps 734 mmHg 93%
    14:00 +6°C° 1.4 mm 2 mps 734 mmHg 93%
    15:00 +6°C° 0.2 mm 2 mps 734 mmHg 93%
    16:00 +6°C° 0.2 mm 2 mps 734 mmHg 93%
    17:00 +6°C° 0.2 mm 2 mps 734 mmHg 93%
    18:00 +5°C° 0.1 mm 2 mps 734 mmHg 92%
    19:00 +4°C° 0.1 mm 3 mps 734 mmHg 91%
    20:00 +4°C° 0.1 mm 4 mps 735 mmHg 89%
    21:00 +3°C° 0 mm 4 mps 736 mmHg 89%
    22:00 +3°C° 0 mm 4 mps 737 mmHg 88%
    23:00 +3°C° 0 mm 4 mps 738 mmHg 87%
    Show more